Regional Weather Roundup
Issued by NWS Sioux Falls, SD

Home | Current Version | Previous Version | Text Only | Print | Product List | Glossary On
Versions: 1 2 3 4 5 6 7 8 9 10 11 12 13 14 15 16 17 18 19 20 21 22 23 24 25 26 27 28 29 30 31 32 33 34 35 36 37 38 39 40 41 42 43 44 45 46 47 48 49 50
000
ASUS43 KFSD 252110
RWRFSD

WEATHER ROUNDUP FOR SE SOUTH DAKOTA/SW MINNESOTA/NW IOWA
NATIONAL WEATHER SERVICE SIOUX FALLS SD
400 PM CDT SUN JUN 25 2017

NOTE: "FAIR" INDICATES FEW OR NO CLOUDS BELOW 12,000 FEET WITH NO
SIGNIFICANT WEATHER AND OR OBSTRUCTIONS TO VISIBILITY.


SDZ038>040-050-052>070-252200-
SOUTHEAST SOUTH DAKOTA

CITY           SKY/WX    TMP DP  RH WIND       PRES   REMARKS
BROOKINGS      MOSUNNY   65  43  44 NW12G20   30.25S
CHAMBERLAIN    MOSUNNY   76  38  25 CALM      30.23F
HURON          MOSUNNY   71  42  35 W6        30.23F
MADISON        FAIR      66  45  45 N12G21    30.25F
MITCHELL       SUNNY     74  39  28 MISG      30.24F
SIOUX FALLS    MOSUNNY   71  47  42 N13G22    30.23F
WINNER         FAIR      80  34  19 VRB6      30.23F
YANKTON        SUNNY     73  41  31 NW12      30.25F
$$

MNZ071-072-080-081-089-090-097-098-252200-
SOUTHWEST MINNESOTA

CITY           SKY/WX    TMP DP  RH WIND       PRES   REMARKS
FAIRMONT       CLOUDY    66  41  40 NW18G24   30.20F
JACKSON        SUNNY     68  39  34 NW22G29   30.22F
LUVERNE        SUNNY     68  36  30 N14G21    30.24S
MARSHALL       PTSUNNY   67  42  40 N16G23    30.22S
MONTEVIDEO     MOSUNNY   70  41  35 N9G20     30.21S
PIPESTONE      MOSUNNY   68  39  34 N10G17    30.24S
REDWOOD FALLS  PTSUNNY   69  40  34 N15G22    30.20S
TRACY          MOSUNNY   69  43  39 NW15G26   30.23S
WINDOM         MOSUNNY   70  37  30 NW21G30   30.22S
WORTHINGTON    MOSUNNY   67  42  40 NW16G24   30.24S
$$

IAZ001>003-012>014-020>022-031-032-NEZ013-014-SDZ071-252200-
NORTHWEST IOWA

CITY           SKY/WX    TMP DP  RH WIND       PRES   REMARKS
CHEROKEE       SUNNY     71  42  35 N10G18    30.23F
DENISON        SUNNY     72  41  33 N9G15     30.25F
ESTHERVILLE    MOSUNNY   66  41  40 NW18G29   30.21F
LE MARS        SUNNY     72  41  33 N8G18     30.25S
ORANGE CITY    SUNNY     72  43  35 N9        30.24S
SHELDON        SUNNY     70  39  32 N14G24    30.22S
SIOUX CITY     SUNNY     75  41  29 N15       30.25S
SPENCER        MOSUNNY   71  40  32 N23G29    30.22F
STORM LAKE       N/A     72  39  30 N17G25    30.23F
$$

ABBREVIATIONS USED IN REMARKS
   TC - TEMPERATURE IN CELSIUS
  WCI - WIND CHILL INDEX
   HX - HEAT INDEX
  VSB - VISIBILITY




USA.gov is the U.S. government's official web portal to all federal, state and local government web resources and services.